| time (UTC) | temp F | wind direction | speed MPH | gust MPH | rain 1hr in | rain 24hr in | rain mn in | humidity % | barometer mb |
| 20260506160512 | 31 | 6 | 0.0 | 0.0 | 0.00 | 0.05 | 0.00 | 96 | 982.1 |
| 20260506160010 | 31 | 344 | 0.0 | 0.0 | 0.00 | 0.05 | 0.00 | 96 | 982.0 |
| 20260506155509 | 31 | 343 | 0.0 | 0.0 | 0.00 | 0.05 | 0.00 | 96 | 982.1 |
| 20260506155008 | 31 | 11 | 0.0 | 0.0 | 0.00 | 0.05 | 0.00 | 96 | 982.1 |
| 20260506154509 | 31 | 17 | 0.0 | 0.0 | 0.00 | 0.05 | 0.00 | 95 | 982.1 |
| 20260506154008 | 31 | 321 | 0.0 | 0.0 | 0.00 | 0.05 | 0.00 | 96 | 982.1 |
| 20260506153510 | 31 | 27 | 0.0 | 0.0 | 0.00 | 0.05 | 0.00 | 96 | 982.0 |
| 20260506153506 | 31 | 327 | 0.0 | 0.0 | 0.00 | 0.05 | 0.00 | 96 | 982.0 |
| 20260506152505 | 31 | 356 | 0.0 | 0.0 | 0.00 | 0.05 | 0.00 | 96 | 981.9 |
| 20260506152005 | 31 | 321 | 0.0 | 0.0 | 0.00 | 0.05 | 0.00 | 96 | 981.8 |
| 20260506151504 | 31 | 327 | 0.0 | 0.0 | 0.00 | 0.05 | 0.00 | 96 | 981.8 |
| 20260506151004 | 31 | 340 | 0.0 | 0.0 | 0.00 | 0.05 | 0.00 | 96 | 981.7 |
| 20260506150504 | 31 | 335 | 0.0 | 0.0 | 0.00 | 0.05 | 0.00 | 97 | 981.5 |
| 20260506150004 | 31 | 309 | 0.0 | 0.0 | 0.00 | 0.05 | 0.00 | 97 | 981.5 |
| 20260506145508 | 31 | 329 | 0.0 | 0.0 | 0.00 | 0.05 | 0.00 | 97 | 981.4 |
| 20260506145504 | 32 | 339 | 0.0 | 0.0 | 0.00 | 0.05 | 0.00 | 97 | 981.4 |
| 20260506144505 | 31 | 328 | 0.0 | 0.0 | 0.00 | 0.06 | 0.00 | 97 | 981.4 |
| 20260506144004 | 31 | 356 | 0.0 | 0.0 | 0.00 | 0.06 | 0.00 | 97 | 981.5 |
| 20260506143509 | 31 | 356 | 0.0 | 0.0 | 0.00 | 0.06 | 0.00 | 97 | 981.5 |
| 20260506143504 | 31 | 356 | 0.0 | 0.0 | 0.00 | 0.06 | 0.00 | 97 | 981.5 |
| 20260506142502 | 30 | 356 | 0.0 | 0.0 | 0.00 | 0.06 | 0.00 | 97 | 981.5 |
| 20260506142002 | 30 | 356 | 0.0 | 0.0 | 0.00 | 0.06 | 0.00 | 97 | 981.4 |
| 20260506141503 | 29 | 356 | 0.0 | 0.0 | 0.00 | 0.06 | 0.00 | 97 | 981.3 |
| 20260506141003 | 29 | 328 | 0.0 | 0.0 | 0.00 | 0.06 | 0.00 | 97 | 981.3 |
| 20260506140502 | 29 | 356 | 0.0 | 0.0 | 0.00 | 0.07 | 0.00 | 97 | 981.3 |
| 20260506140005 | 29 | 356 | 0.0 | 0.0 | 0.00 | 0.07 | 0.00 | 96 | 981.4 |
| 20260506140001 | 28 | 356 | 0.0 | 0.0 | 0.00 | 0.07 | 0.00 | 96 | 981.4 |
| 20260506135001 | 28 | 15 | 0.0 | 0.0 | 0.00 | 0.07 | 0.00 | 96 | 981.4 |
| 20260506134459 | 28 | 10 | 0.0 | 2.0 | 0.00 | 0.08 | 0.00 | 96 | 981.3 |
| 20260506133959 | 28 | 338 | 0.0 | 2.0 | 0.00 | 0.08 | 0.00 | 96 | 981.3 |
| 20260506133459 | 28 | 352 | 0.0 | 1.0 | 0.00 | 0.08 | 0.00 | 96 | 981.3 |
| 20260506132959 | 28 | 22 | 0.0 | 1.0 | 0.00 | 0.08 | 0.00 | 96 | 981.2 |
| 20260506132457 | 29 | 352 | 0.0 | 1.0 | 0.00 | 0.08 | 0.00 | 97 | 981.2 |
| 20260506132000 | 28 | 356 | 0.0 | 0.0 | 0.00 | 0.08 | 0.00 | 97 | 980.8 |
| 20260506131956 | 29 | 16 | 0.0 | 0.0 | 0.00 | 0.08 | 0.00 | 97 | 980.9 |
| 20260506130952 | 28 | 358 | 0.0 | 0.0 | 0.00 | 0.08 | 0.00 | 97 | 980.7 |
| 20260506130452 | 28 | 8 | 0.0 | 3.0 | 0.00 | 0.08 | 0.00 | 97 | 980.7 |
| 20260506125955 | 28 | 344 | 0.0 | 3.0 | 0.00 | 0.08 | 0.00 | 97 | 980.6 |
| 20260506125951 | 27 | 110 | 0.0 | 0.0 | 0.00 | 0.08 | 0.00 | 96 | 980.6 |
| 20260506124950 | 27 | 110 | 0.0 | 0.0 | 0.00 | 0.08 | 0.00 | 96 | 980.5 |
| 20260506124450 | 27 | 126 | 0.0 | 0.0 | 0.00 | 0.08 | 0.00 | 96 | 980.5 |
| 20260506123950 | 27 | 127 | 0.0 | 0.0 | 0.00 | 0.08 | 0.00 | 96 | 980.5 |
| 20260506123450 | 27 | 353 | 0.0 | 0.0 | 0.00 | 0.08 | 0.00 | 96 | 980.2 |
| 20260506122954 | 27 | 24 | 0.0 | 0.0 | 0.00 | 0.08 | 0.00 | 96 | 980.2 |
| 20260506122950 | 27 | 345 | 0.0 | 0.0 | 0.00 | 0.08 | 0.00 | 96 | 980.2 |
| 20260506122555 | 27 | 338 | 0.0 | 0.0 | 0.00 | 0.08 | 0.00 | 96 | 980.4 |
| 20260506121452 | 27 | 312 | 0.0 | 0.0 | 0.00 | 0.08 | 0.00 | 96 | 980.2 |
| 20260506121448 | 27 | 11 | 0.0 | 0.0 | 0.00 | 0.08 | 0.00 | 96 | 980.4 |
| 20260506120452 | 27 | 46 | 0.0 | 0.0 | 0.00 | 0.09 | 0.00 | 96 | 980.1 |
| 20260506120448 | 27 | 323 | 0.0 | 0.0 | 0.00 | 0.09 | 0.00 | 96 | 980.1 |
| 20260506115449 | 27 | 214 | 0.0 | 0.0 | 0.00 | 0.09 | 0.00 | 96 | 980.0 |
| 20260506114953 | 27 | 285 | 0.0 | 0.0 | 0.00 | 0.10 | 0.00 | 96 | 979.9 |
| 20260506114948 | 27 | 22 | 0.0 | 0.0 | 0.00 | 0.09 | 0.00 | 96 | 980.0 |
| 20260506114448 | 27 | 352 | 0.0 | 0.0 | 0.00 | 0.10 | 0.00 | 96 | 980.0 |
| 20260506114053 | 27 | 321 | 0.0 | 0.0 | 0.00 | 0.11 | 0.00 | 96 | 979.6 |
| 20260506112951 | 27 | 217 | 0.0 | 0.0 | 0.00 | 0.12 | 0.00 | 96 | 979.8 |
| 20260506112946 | 27 | 20 | 0.0 | 0.0 | 0.00 | 0.11 | 0.00 | 96 | 979.5 |
| 20260506111946 | 27 | 308 | 0.0 | 0.0 | 0.00 | 0.12 | 0.00 | 96 | 979.9 |
| 20260506111445 | 27 | 13 | 0.0 | 0.0 | 0.00 | 0.12 | 0.00 | 96 | 979.9 |
| 20260506110949 | 27 | 4 | 0.0 | 0.0 | 0.00 | 0.12 | 0.00 | 96 | 979.9 |
| 20260506110944 | 27 | 343 | 0.0 | 0.0 | 0.00 | 0.12 | 0.00 | 96 | 979.9 |
| 20260506110444 | 27 | 353 | 0.0 | 0.0 | 0.00 | 0.12 | 0.00 | 96 | 979.9 |
| 20260506105444 | 27 | 348 | 0.0 | 0.0 | 0.00 | 0.12 | 0.00 | 96 | 979.8 |
| 20260506104948 | 28 | 27 | 0.0 | 0.0 | 0.00 | 0.12 | 0.00 | 96 | 979.8 |
| 20260506104944 | 27 | 29 | 0.0 | 0.0 | 0.00 | 0.12 | 0.00 | 96 | 979.8 |
| 20260506103942 | 28 | 343 | 0.0 | 0.0 | 0.00 | 0.12 | 0.00 | 96 | 979.6 |
| 20260506103442 | 28 | 333 | 0.0 | 0.0 | 0.00 | 0.12 | 0.00 | 96 | 979.6 |
| 20260506102942 | 28 | 327 | 0.0 | 0.0 | 0.00 | 0.12 | 0.00 | 96 | 979.6 |
| 20260506102442 | 28 | 323 | 0.0 | 0.0 | 0.00 | 0.12 | 0.00 | 96 | 979.6 |
| 20260506101942 | 28 | 348 | 0.0 | 0.0 | 0.00 | 0.12 | 0.00 | 96 | 979.6 |
| 20260506101446 | 28 | 331 | 0.0 | 0.0 | 0.00 | 0.12 | 0.00 | 96 | 979.6 |
| 20260506101442 | 28 | 330 | 0.0 | 0.0 | 0.00 | 0.12 | 0.00 | 96 | 979.6 |
| 20260506100442 | 28 | 354 | 0.0 | 0.0 | 0.00 | 0.12 | 0.00 | 96 | 979.5 |
| 20260506095942 | 28 | 316 | 0.0 | 0.0 | 0.00 | 0.12 | 0.00 | 96 | 979.4 |
| 20260506095447 | 28 | 335 | 0.0 | 0.0 | 0.00 | 0.12 | 0.00 | 96 | 979.5 |
| 20260506095443 | 28 | 300 | 0.0 | 0.0 | 0.00 | 0.12 | 0.00 | 96 | 979.4 |
| 20260506094442 | 28 | 25 | 0.0 | 0.0 | 0.00 | 0.12 | 0.00 | 96 | 979.4 |
| 20260506094438 | 28 | 35 | 0.0 | 0.0 | 0.00 | 0.12 | 0.00 | 96 | 979.4 |
| 20260506094043 | 28 | 0 | 0.0 | 0.0 | 0.00 | 0.12 | 0.00 | 96 | 979.4 |
| 20260506092938 | 28 | 18 | 0.0 | 0.0 | 0.00 | 0.12 | 0.00 | 96 | 979.3 |
| 20260506092441 | 28 | 0 | 0.0 | 0.0 | 0.00 | 0.12 | 0.00 | 96 | 979.4 |
| 20260506092437 | 28 | 20 | 0.0 | 0.0 | 0.00 | 0.12 | 0.00 | 97 | 979.3 |
| 20260506092040 | 28 | 323 | 0.0 | 0.0 | 0.00 | 0.12 | 0.00 | 97 | 979.3 |
| 20260506091541 | 28 | 352 | 0.0 | 0.0 | 0.00 | 0.12 | 0.00 | 97 | 979.3 |
| 20260506090435 | 28 | 5 | 0.0 | 0.0 | 0.00 | 0.12 | 0.00 | 97 | 979.3 |
| 20260506085934 | 28 | 333 | 0.0 | 0.0 | 0.00 | 0.12 | 0.00 | 97 | 979.3 |
| 20260506085437 | 28 | 321 | 0.0 | 1.0 | 0.00 | 0.12 | 0.00 | 97 | 979.4 |
| 20260506085433 | 28 | 316 | 0.0 | 1.0 | 0.00 | 0.12 | 0.00 | 97 | 979.4 |
| 20260506084932 | 28 | 17 | 0.0 | 1.0 | 0.00 | 0.12 | 0.00 | 97 | 979.4 |
| 20260506083932 | 29 | 338 | 0.0 | 2.0 | 0.00 | 0.12 | 0.00 | 97 | 979.5 |
| 20260506083432 | 29 | 310 | 0.0 | 2.0 | 0.00 | 0.12 | 0.00 | 97 | 979.6 |
| 20260506082931 | 29 | 330 | 0.0 | 1.0 | 0.00 | 0.12 | 0.00 | 97 | 979.6 |
| 20260506082429 | 29 | 8 | 0.0 | 2.0 | 0.00 | 0.12 | 0.00 | 97 | 979.6 |
| 20260506081929 | 29 | 319 | 0.0 | 2.0 | 0.00 | 0.12 | 0.00 | 97 | 979.6 |
| 20260506081429 | 29 | 323 | 0.0 | 1.0 | 0.00 | 0.12 | 0.00 | 97 | 979.6 |
| 20260506080930 | 29 | 321 | 0.0 | 1.0 | 0.00 | 0.12 | 0.00 | 97 | 979.5 |
| 20260506080431 | 29 | 12 | 0.0 | 1.0 | 0.00 | 0.12 | 0.00 | 97 | 979.3 |
| 20260506073427 | 29 | 13 | 0.0 | 1.0 | 0.00 | 0.13 | 0.00 | 97 | 979.4 |
| 20260506072928 | 29 | 309 | 0.0 | 1.0 | 0.00 | 0.13 | 0.00 | 97 | 979.4 |
| 20260506072428 | 29 | 17 | 0.0 | 1.0 | 0.00 | 0.13 | 0.00 | 97 | 979.4 |
| 20260506071928 | 29 | 311 | 0.0 | 1.0 | 0.00 | 0.13 | 0.00 | 97 | 979.4 |
| 20260506071428 | 29 | 318 | 0.0 | 1.0 | 0.00 | 0.13 | 0.00 | 97 | 979.5 |
| 20260506070926 | 29 | 334 | 0.0 | 0.0 | 0.00 | 0.13 | 0.00 | 97 | 979.5 |
| 20260506070426 | 29 | 335 | 0.0 | 0.0 | 0.00 | 0.14 | 0.00 | 97 | 979.4 |
| 20260506062425 | 29 | 348 | 0.0 | 0.0 | 0.00 | 0.17 | 0.00 | 97 | 979.3 |
| 20260506061929 | 29 | 337 | 0.0 | 1.0 | 0.00 | 0.17 | 0.00 | 97 | 979.2 |
| 20260506061925 | 29 | 327 | 0.0 | 1.0 | 0.00 | 0.17 | 0.00 | 97 | 979.3 |
| 20260506060925 | 29 | 353 | 0.0 | 0.0 | 0.00 | 0.17 | 0.00 | 97 | 979.1 |
| 20260506060425 | 29 | 335 | 0.0 | 0.0 | 0.00 | 0.17 | 0.00 | 97 | 979.1 |
| 20260506050414 | 29 | 26 | 0.0 | 2.0 | 0.00 | 0.19 | 0.17 | 97 | 978.8 |
| 20260506044913 | 29 | 315 | 0.0 | 2.0 | 0.00 | 0.20 | 0.17 | 96 | 979.1 |
| 20260506044412 | 29 | 319 | 0.0 | 4.0 | 0.00 | 0.21 | 0.17 | 97 | 978.9 |
| 20260506043916 | 29 | 338 | 0.0 | 4.0 | 0.00 | 0.21 | 0.17 | 97 | 978.9 |
| 20260506043912 | 29 | 304 | 0.0 | 0.0 | 0.00 | 0.21 | 0.17 | 97 | 978.8 |
| 20260506043516 | 29 | 326 | 0.0 | 0.0 | 0.00 | 0.21 | 0.17 | 97 | 978.7 |
| 20260506042408 | 29 | 344 | 0.0 | 1.0 | 0.00 | 0.21 | 0.17 | 97 | 978.7 |
| 20260506041912 | 29 | 340 | 0.0 | 2.0 | 0.00 | 0.21 | 0.17 | 97 | 978.8 |
| 20260506041908 | 29 | 342 | 0.0 | 1.0 | 0.00 | 0.21 | 0.17 | 97 | 978.7 |
| 20260506040906 | 29 | 319 | 0.0 | 2.0 | 0.00 | 0.21 | 0.17 | 97 | 978.7 |
| 20260506040406 | 29 | 310 | 0.0 | 2.0 | 0.00 | 0.22 | 0.17 | 97 | 978.8 |
| 20260506035906 | 29 | 352 | 0.0 | 2.0 | 0.00 | 0.22 | 0.17 | 97 | 978.8 |
| 20260506035408 | 29 | 42 | 0.0 | 2.0 | 0.00 | 0.23 | 0.17 | 97 | 978.8 |
| 20260506035404 | 29 | 329 | 0.0 | 0.0 | 0.00 | 0.23 | 0.17 | 97 | 978.9 |
| 20260506034405 | 29 | 314 | 0.0 | 2.0 | 0.00 | 0.24 | 0.17 | 97 | 978.7 |
| 20260506033904 | 29 | 319 | 0.0 | 2.0 | 0.00 | 0.24 | 0.17 | 97 | 978.5 |
| 20260506033410 | 29 | 28 | 0.0 | 1.0 | 0.00 | 0.24 | 0.17 | 96 | 978.3 |
| 20260506033404 | 29 | 309 | 0.0 | 2.0 | 0.00 | 0.24 | 0.17 | 96 | 978.5 |
| 20260506032904 | 29 | 315 | 0.0 | 2.0 | 0.00 | 0.24 | 0.17 | 96 | 978.5 |
| 20260506031905 | 29 | 349 | 0.0 | 1.0 | 0.00 | 0.25 | 0.17 | 96 | 978.2 |
| 20260506031404 | 29 | 306 | 0.0 | 3.0 | 0.00 | 0.25 | 0.17 | 96 | 978.1 |
| 20260506030904 | 29 | 295 | 0.0 | 3.0 | 0.00 | 0.25 | 0.17 | 96 | 978.0 |
| 20260506030408 | 29 | 329 | 0.0 | 2.0 | 0.00 | 0.25 | 0.17 | 96 | 977.9 |
| 20260506030404 | 29 | 297 | 0.0 | 2.0 | 0.00 | 0.25 | 0.17 | 96 | 978.0 |
| 20260506025404 | 29 | 309 | 0.0 | 1.0 | 0.00 | 0.25 | 0.17 | 96 | 977.8 |
| 20260506024902 | 29 | 306 | 0.0 | 2.0 | 0.00 | 0.25 | 0.17 | 96 | 977.8 |
| 20260506024402 | 29 | 345 | 0.0 | 2.0 | 0.00 | 0.25 | 0.17 | 96 | 977.8 |
| 20260506023902 | 29 | 295 | 0.0 | 2.0 | 0.00 | 0.25 | 0.17 | 96 | 977.6 |
| 20260506023402 | 29 | 315 | 0.0 | 2.0 | 0.00 | 0.25 | 0.17 | 96 | 977.5 |
| 20260506022902 | 29 | 352 | 0.0 | 2.0 | 0.00 | 0.25 | 0.17 | 96 | 977.3 |
| 20260506022401 | 29 | 306 | 0.0 | 1.0 | 0.00 | 0.25 | 0.17 | 96 | 977.2 |
| 20260506021904 | 29 | 2 | 0.0 | 1.0 | 0.00 | 0.25 | 0.17 | 96 | 977.2 |
| 20260506021406 | 29 | 217 | 0.0 | 2.0 | 0.00 | 0.25 | 0.17 | 96 | 976.9 |
| 20260506021401 | 29 | 5 | 0.0 | 2.0 | 0.00 | 0.25 | 0.17 | 96 | 977.0 |
| 20260506020401 | 29 | 314 | 0.0 | 2.0 | 0.00 | 0.25 | 0.17 | 96 | 976.9 |
| 20260506015900 | 29 | 290 | 0.0 | 2.0 | 0.00 | 0.25 | 0.17 | 96 | 976.9 |
| 20260506015400 | 29 | 311 | 0.0 | 2.0 | 0.00 | 0.25 | 0.17 | 96 | 976.9 |
| 20260506014900 | 29 | 339 | 1.0 | 3.0 | 0.00 | 0.25 | 0.17 | 96 | 976.9 |
| 20260506014400 | 29 | 321 | 1.0 | 4.0 | 0.00 | 0.25 | 0.17 | 96 | 976.9 |
| 20260506013900 | 29 | 319 | 1.0 | 4.0 | 0.00 | 0.25 | 0.17 | 96 | 976.9 |
| 20260506013400 | 30 | 6 | 1.0 | 3.0 | 0.00 | 0.25 | 0.17 | 96 | 976.7 |
| 20260506012900 | 30 | 11 | 0.0 | 3.0 | 0.00 | 0.25 | 0.17 | 96 | 976.5 |
| 20260506012405 | 30 | 301 | 1.0 | 4.0 | 0.00 | 0.25 | 0.17 | 96 | 976.6 |
| 20260506012359 | 30 | 296 | 0.0 | 5.0 | 0.00 | 0.25 | 0.17 | 96 | 976.5 |
| 20260506011859 | 30 | 299 | 1.0 | 5.0 | 0.00 | 0.25 | 0.17 | 96 | 976.6 |
| 20260506010859 | 30 | 341 | 1.0 | 4.0 | 0.00 | 0.25 | 0.17 | 96 | 976.5 |
| 20260506010359 | 30 | 307 | 1.0 | 4.0 | 0.00 | 0.25 | 0.17 | 96 | 976.5 |
| 20260506005859 | 30 | 306 | 1.0 | 3.0 | 0.00 | 0.25 | 0.17 | 96 | 976.3 |
| 20260506005357 | 30 | 322 | 1.0 | 3.0 | 0.00 | 0.25 | 0.17 | 96 | 976.3 |
| 20260506004903 | 31 | 312 | 1.0 | 4.0 | 0.00 | 0.25 | 0.17 | 96 | 976.3 |
| 20260506004857 | 31 | 296 | 1.0 | 3.0 | 0.00 | 0.25 | 0.17 | 96 | 976.5 |
| 20260506004358 | 31 | 347 | 1.0 | 3.0 | 0.00 | 0.25 | 0.17 | 96 | 976.3 |
| 20260506003358 | 31 | 353 | 0.0 | 4.0 | 0.00 | 0.25 | 0.17 | 96 | 976.3 |
| 20260506002859 | 31 | 334 | 0.0 | 3.0 | 0.01 | 0.25 | 0.17 | 96 | 976.3 |
| 20260506002402 | 31 | 302 | 1.0 | 4.0 | 0.01 | 0.25 | 0.17 | 96 | 976.2 |
| 20260506002358 | 31 | 288 | 1.0 | 3.0 | 0.01 | 0.25 | 0.17 | 96 | 976.2 |
| 20260506001358 | 32 | 222 | 1.0 | 4.0 | 0.01 | 0.25 | 0.17 | 96 | 976.2 |
| 20260506000858 | 32 | 319 | 0.0 | 2.0 | 0.01 | 0.25 | 0.17 | 97 | 976.1 |
| 20260506000401 | 32 | 294 | 0.0 | 2.0 | 0.01 | 0.25 | 0.17 | 97 | 976.0 |
| 20260505235858 | 32 | 18 | 0.0 | 2.0 | 0.01 | 0.25 | 0.17 | 97 | 976.0 |
| 20260505235402 | 32 | 346 | 0.0 | 1.0 | 0.01 | 0.25 | 0.17 | 96 | 975.9 |
| 20260505235358 | 32 | 339 | 0.0 | 2.0 | 0.01 | 0.25 | 0.17 | 96 | 975.9 |
| 20260505234358 | 32 | 4 | 0.0 | 3.0 | 0.01 | 0.25 | 0.17 | 96 | 975.9 |
| 20260505233856 | 33 | 326 | 1.0 | 3.0 | 0.01 | 0.25 | 0.17 | 96 | 975.9 |
| 20260505233400 | 33 | 337 | 2.0 | 7.0 | 0.00 | 0.24 | 0.16 | 96 | 975.6 |
| 20260505233356 | 33 | 351 | 1.0 | 3.0 | 0.01 | 0.25 | 0.17 | 96 | 975.6 |
| 20260505232355 | 33 | 340 | 3.0 | 7.0 | 0.00 | 0.24 | 0.16 | 96 | 975.7 |
| 20260505231859 | 34 | 321 | 2.0 | 7.0 | 0.00 | 0.24 | 0.16 | 97 | 975.6 |
| 20260505231855 | 34 | 13 | 3.0 | 7.0 | 0.00 | 0.24 | 0.16 | 96 | 975.7 |
| 20260505231501 | 34 | 329 | 2.0 | 6.0 | 0.00 | 0.24 | 0.16 | 97 | 975.5 |
| 20260505230354 | 34 | 342 | 2.0 | 6.0 | 0.00 | 0.24 | 0.16 | 97 | 975.3 |
| 20260505225852 | 34 | 350 | 2.0 | 7.0 | 0.00 | 0.24 | 0.16 | 97 | 975.2 |
| 20260505225352 | 34 | 334 | 2.0 | 7.0 | 0.00 | 0.24 | 0.16 | 97 | 975.0 |
| 20260505224851 | 34 | 30 | 3.0 | 7.0 | 0.00 | 0.24 | 0.16 | 97 | 975.0 |
| 20260505224352 | 34 | 325 | 3.0 | 7.0 | 0.00 | 0.24 | 0.16 | 96 | 974.9 |
| 20260505223856 | 35 | 314 | 2.0 | 5.0 | 0.00 | 0.24 | 0.16 | 97 | 974.7 |
| 20260505223852 | 35 | 326 | 2.0 | 7.0 | 0.00 | 0.24 | 0.16 | 96 | 974.8 |
| 20260505222852 | 35 | 17 | 2.0 | 5.0 | 0.00 | 0.24 | 0.16 | 97 | 974.7 |
| 20260505222352 | 35 | 8 | 2.0 | 7.0 | 0.01 | 0.24 | 0.16 | 96 | 974.7 |
| 20260505221850 | 35 | 323 | 2.0 | 7.0 | 0.01 | 0.24 | 0.16 | 97 | 974.6 |
| 20260505221350 | 35 | 320 | 2.0 | 6.0 | 0.01 | 0.24 | 0.16 | 97 | 974.6 |
| 20260505220850 | 35 | 19 | 3.0 | 7.0 | 0.01 | 0.24 | 0.16 | 97 | 974.6 |
| 20260505220350 | 35 | 25 | 3.0 | 7.0 | 0.01 | 0.24 | 0.16 | 97 | 974.7 |
| 20260505215850 | 35 | 314 | 2.0 | 7.0 | 0.01 | 0.24 | 0.16 | 96 | 974.7 |
| 20260505215350 | 35 | 326 | 2.0 | 9.0 | 0.01 | 0.24 | 0.16 | 97 | 974.8 |
| 20260505214850 | 35 | 6 | 3.0 | 9.0 | 0.01 | 0.24 | 0.16 | 96 | 974.8 |
| 20260505214350 | 35 | 307 | 2.0 | 8.0 | 0.01 | 0.24 | 0.16 | 96 | 974.8 |
| 20260505213854 | 35 | 340 | 3.0 | 8.0 | 0.01 | 0.24 | 0.16 | 97 | 974.9 |
| 20260505213849 | 35 | 324 | 2.0 | 8.0 | 0.01 | 0.24 | 0.16 | 97 | 974.9 |
| 20260505212847 | 35 | 324 | 3.0 | 8.0 | 0.01 | 0.24 | 0.16 | 96 | 975.0 |
| 20260505212345 | 36 | 321 | 3.0 | 8.0 | 0.00 | 0.23 | 0.15 | 97 | 975.0 |
| 20260505211845 | 36 | 26 | 3.0 | 8.0 | 0.00 | 0.23 | 0.15 | 96 | 975.2 |
| 20260505211346 | 36 | 18 | 3.0 | 8.0 | 0.00 | 0.23 | 0.15 | 96 | 975.3 |
| 20260505211342 | 36 | 309 | 3.0 | 8.0 | 0.00 | 0.23 | 0.15 | 97 | 975.4 |
| 20260505210339 | 36 | 341 | 3.0 | 8.0 | 0.00 | 0.23 | 0.15 | 97 | 975.4 |
| 20260505205839 | 36 | 358 | 3.0 | 8.0 | 0.00 | 0.23 | 0.15 | 97 | 975.4 |
| 20260505205337 | 36 | 344 | 3.0 | 8.0 | 0.00 | 0.23 | 0.15 | 97 | 975.5 |
| 20260505204835 | 36 | 339 | 3.0 | 7.0 | 0.00 | 0.23 | 0.15 | 97 | 975.5 |
| 20260505204334 | 36 | 340 | 2.0 | 7.0 | 0.00 | 0.23 | 0.15 | 97 | 975.5 |
| 20260505203832 | 36 | 345 | 1.0 | 6.0 | 0.00 | 0.23 | 0.15 | 97 | 975.5 |
| 20260505203329 | 36 | 11 | 2.0 | 7.0 | 0.00 | 0.23 | 0.15 | 97 | 975.7 |
| 20260505202829 | 36 | 15 | 3.0 | 9.0 | 0.00 | 0.23 | 0.15 | 97 | 975.9 |
| 20260505202329 | 36 | 356 | 2.0 | 9.0 | 0.00 | 0.23 | 0.15 | 97 | 976.0 |
| 20260505201828 | 36 | 342 | 1.0 | 4.0 | 0.00 | 0.23 | 0.15 | 97 | 976.0 |
| 20260505201334 | 36 | 11 | 2.0 | 5.0 | 0.01 | 0.23 | 0.15 | 97 | 976.0 |
| 20260505200833 | 36 | 335 | 1.0 | 5.0 | 0.01 | 0.23 | 0.15 | 97 | 976.1 |
| 20260505200829 | 36 | 340 | 2.0 | 5.0 | 0.01 | 0.23 | 0.15 | 97 | 976.1 |
| 20260505195828 | 36 | 13 | 1.0 | 5.0 | 0.01 | 0.23 | 0.15 | 97 | 976.1 |
| 20260505195327 | 36 | 332 | 1.0 | 5.0 | 0.01 | 0.23 | 0.15 | 97 | 976.0 |
| 20260505194827 | 36 | 326 | 1.0 | 4.0 | 0.01 | 0.23 | 0.15 | 97 | 976.1 |
| 20260505194327 | 36 | 316 | 1.0 | 3.0 | 0.01 | 0.23 | 0.15 | 97 | 976.2 |
| 20260505193831 | 35 | 2 | 1.0 | 6.0 | 0.02 | 0.23 | 0.15 | 96 | 976.2 |
| 20260505193827 | 36 | 354 | 1.0 | 6.0 | 0.02 | 0.23 | 0.15 | 97 | 976.1 |
| 20260505192823 | 36 | 321 | 0.0 | 3.0 | 0.02 | 0.23 | 0.15 | 97 | 976.3 |
| 20260505192323 | 36 | 323 | 0.0 | 2.0 | 0.02 | 0.23 | 0.15 | 97 | 976.3 |
| 20260505191827 | 36 | 129 | 0.0 | 2.0 | 0.01 | 0.22 | 0.14 | 97 | 976.5 |
| 20260505191822 | 36 | 261 | 0.0 | 1.0 | 0.02 | 0.23 | 0.15 | 97 | 976.5 |
| 20260505190823 | 36 | 169 | 0.0 | 2.0 | 0.01 | 0.22 | 0.14 | 97 | 976.5 |
| 20260505190325 | 35 | 343 | 0.0 | 3.0 | 0.01 | 0.22 | 0.14 | 97 | 976.6 |
| 20260505185827 | 35 | 333 | 0.0 | 2.0 | 0.01 | 0.22 | 0.14 | 96 | 976.7 |
| 20260505185823 | 35 | 314 | 0.0 | 3.0 | 0.01 | 0.22 | 0.14 | 96 | 976.6 |
| 20260505184823 | 35 | 303 | 0.0 | 1.0 | 0.01 | 0.22 | 0.14 | 97 | 976.7 |
| 20260505184327 | 36 | 336 | 0.0 | 3.0 | 0.00 | 0.21 | 0.13 | 96 | 976.7 |
| 20260505184322 | 35 | 336 | 0.0 | 3.0 | 0.01 | 0.22 | 0.14 | 96 | 976.7 |
| 20260505183321 | 36 | 255 | 0.0 | 3.0 | 0.00 | 0.21 | 0.13 | 97 | 976.8 |
| 20260505182821 | 36 | 5 | 0.0 | 3.0 | 0.00 | 0.21 | 0.13 | 96 | 976.8 |
| 20260505182321 | 36 | 345 | 0.0 | 1.0 | 0.00 | 0.21 | 0.13 | 97 | 976.8 |
| 20260505181821 | 36 | 336 | 0.0 | 1.0 | 0.00 | 0.21 | 0.13 | 97 | 976.8 |
| 20260505181325 | 36 | 342 | 0.0 | 1.0 | 0.01 | 0.21 | 0.13 | 97 | 977.0 |
| 20260505181321 | 36 | 346 | 0.0 | 0.0 | 0.00 | 0.21 | 0.13 | 97 | 977.0 |
| 20260505180321 | 36 | 326 | 0.0 | 1.0 | 0.01 | 0.21 | 0.13 | 97 | 977.3 |
| 20260505175821 | 36 | 285 | 0.0 | 1.0 | 0.01 | 0.21 | 0.13 | 97 | 977.2 |
| 20260505175320 | 35 | 284 | 0.0 | 1.0 | 0.01 | 0.21 | 0.13 | 97 | 977.2 |
| 20260505174823 | 35 | 0 | 0.0 | 1.0 | 0.01 | 0.21 | 0.13 | 97 | 977.3 |
| 20260505174819 | 35 | 297 | 0.0 | 1.0 | 0.01 | 0.21 | 0.13 | 97 | 977.2 |
| 20260505173819 | 35 | 321 | 0.0 | 1.0 | 0.01 | 0.21 | 0.13 | 97 | 977.3 |
| 20260505173320 | 35 | 311 | 0.0 | 1.0 | 0.01 | 0.21 | 0.13 | 97 | 977.3 |
| 20260505172819 | 35 | 322 | 0.0 | 1.0 | 0.01 | 0.21 | 0.13 | 97 | 977.3 |
| 20260505172319 | 35 | 309 | 0.0 | 1.0 | 0.01 | 0.21 | 0.13 | 97 | 977.4 |
| 20260505171819 | 35 | 329 | 0.0 | 3.0 | 0.01 | 0.21 | 0.13 | 97 | 977.4 |
| 20260505171319 | 35 | 287 | 0.0 | 3.0 | 0.01 | 0.21 | 0.13 | 97 | 977.5 |
| 20260505170819 | 35 | 3 | 0.0 | 2.0 | 0.00 | 0.20 | 0.12 | 97 | 977.5 |
| 20260505170318 | 35 | 275 | 0.0 | 2.0 | 0.00 | 0.20 | 0.12 | 97 | 977.6 |
| 20260505165817 | 35 | 323 | 0.0 | 2.0 | 0.00 | 0.20 | 0.12 | 97 | 977.6 |
| 20260505165318 | 35 | 4 | 0.0 | 1.0 | 0.00 | 0.20 | 0.12 | 97 | 977.6 |
| 20260505164821 | 34 | 355 | 0.0 | 2.0 | 0.00 | 0.20 | 0.12 | 97 | 977.8 |
| 20260505164815 | 35 | 324 | 0.0 | 1.0 | 0.00 | 0.20 | 0.12 | 97 | 977.6 |
| 20260505164315 | 35 | 339 | 0.0 | 2.0 | 0.00 | 0.20 | 0.12 | 97 | 977.8 |
| 20260505163319 | 34 | 17 | 0.0 | 1.0 | 0.00 | 0.20 | 0.12 | 97 | 977.9 |
| 20260505163314 | 34 | 6 | 0.0 | 1.0 | 0.00 | 0.20 | 0.12 | 97 | 977.9 |
| 20260505162313 | 34 | 151 | 0.0 | 1.0 | 0.00 | 0.20 | 0.12 | 97 | 977.8 |
| 20260505161811 | 35 | 290 | 0.0 | 1.0 | 0.00 | 0.20 | 0.12 | 97 | 977.8 |
| 20260505161310 | 34 | 319 | 0.0 | 1.0 | 0.00 | 0.20 | 0.12 | 97 | 977.8 |